User: anonymous   Login
Location: Unspecified
(0.0000°N, 0.0000°E)
Time: 21:21:54
(UTC+00:00)
Language:

Nadezhda 3 - Orbit

View from above orbital plane
View from above orbital plane
View from above satellite
View from above satellite

Ground track
Ground track

The orbit data is extracted from the following two-line orbital elements,

1 21152U 91019A   18267.92617740 +.00000007 +00000-0 -82203-5 0  9999
2 21152 082.9257 236.7110 0042206 020.4351 031.1430 13.74235072380507
Epoch (UTC): 24 September 2018 22:13:41
Eccentricity: 0.0042206
inclination: 82.9257°
perigee height: 953 km
apogee height: 1015 km
right ascension of ascending node: 236.7110°
argument of perigee: 20.4351°
revolutions per day: 13.74235072
mean anomaly at epoch: 31.1430°
orbit number at epoch: 38050

The dashed part of the orbit path shows where the satellite is in the earth's shadow,  

DLR